Back to catalog

ARIANE 44LP R/B

AliveHEO
NORAD 26591·ROCKET BODY·🇫🇷 France

Launched Oct 29, 2000 from Guiana Space Centre

Loading…

Next Passes (next 24 hours)

TLE

FreshSource: Space-Track

Epoch: Sep 14, 2026, 10:04 UTC

1 26591U 00068B   26257.41973199  .00002097  00000-0  92503-3 0  9992
2 26591   7.0796   9.4769 6458934 276.4989  18.9595  3.34392355262625

Track ARIANE 44LP R/B in real time with AllMySat

Download on the App Store